Weather History for Naples, Italy

Change the Weather History Date:

Thursday, November 1, 2012

  Actual Average Record
Temperature  
Mean Temperature 62 °F -  
Max Temperature 68 °F 63 °F 84 °F (2004)
Min Temperature 57 °F 46 °F 35 °F (2004)
Degree Days  
Heating Degree Days 2    
Growing Degree Days 12 (Base 50)    
Moisture  
Dew Point 57 °F    
Average Humidity 75    
Maximum Humidity 88    
Minimum Humidity 64    
Precipitation  
Precipitation 0.00 in 0.21 in - ()
Sea Level Pressure  
Sea Level Pressure 29.57 in    
Wind  
Wind Speed 11 mph ()    
Max Wind Speed 18 mph    
Max Gust Speed 32 mph    
Visibility 6.1 miles    
Events Rain    
Averages and records for this station are not official NWS values.
T = Trace of Precipitation, MM = Missing Value Source: Averaged Metar Reports

Daily Weather History Graph

Daily Weather History Graph

Search for Another Location

Airport:

Trip Planner

Search our weather history database for the weather conditions in past years. The results will help you decide how hot, cold, wet, or windy it might be!

Date:

Astronomy

Nov. 01, 2012 Rise Set
Actual Time 6:33 AM CET 4:58 PM CET
Civil Twilight 6:05 AM CET 5:27 PM CET
Nautical Twilight 5:32 AM CET 5:59 PM CET
Astronomical Twilight 5:00 AM CET 6:31 PM CET
Moon 6:41 PM CET (11/1) 8:52 AM CET (11/1)
Length of Visible Light 11h 21m
Length of Day
10h 24m
Waning Gibbous, 94% of the Moon is Illuminated
Nov 1
Waning Gibbous
Nov 7
Last Quarter
Nov 13
New
Nov 20
First Quarter
Nov 28
Full

Hourly Weather History & Observations

Time (CET) Temp. Dew Point Humidity Pressure Visibility Wind Dir Wind Speed Gust Speed Precip Events Conditions
12:20 AM 68.0 °F 62.6 °F 83% 29.44 in 5.0 mi South 11.5 mph 23.0 mph N/A   Mostly Cloudy
12:50 AM 68.0 °F 64.4 °F 88% 29.44 in 3.7 mi SSW 12.7 mph - N/A Rain Rain
1:20 AM 66.2 °F 60.8 °F 83% 29.44 in 6.2 mi SW 12.7 mph - N/A   Mostly Cloudy
2:20 AM 66.2 °F 57.2 °F 73% 29.44 in 6.2 mi SSW 12.7 mph 25.3 mph N/A   Mostly Cloudy
2:50 AM 66.2 °F 59.0 °F 78% 29.42 in 6.2 mi SSW 12.7 mph 24.2 mph N/A   Mostly Cloudy
3:20 AM 66.2 °F 59.0 °F 78% 29.42 in 6.2 mi SSW 11.5 mph - N/A   Mostly Cloudy
3:50 AM 68.0 °F 59.0 °F 73% 29.42 in 6.2 mi SSW 16.1 mph 28.8 mph N/A   Mostly Cloudy
4:20 AM 68.0 °F 59.0 °F 73% 29.42 in 6.2 mi SSW 13.8 mph - N/A   Light Drizzle
4:50 AM 68.0 °F 59.0 °F 73% 29.42 in 6.2 mi SW 15.0 mph 27.6 mph N/A   Light Drizzle
5:20 AM 68.0 °F 59.0 °F 73% 29.42 in 6.2 mi SW 12.7 mph - N/A   Mostly Cloudy
5:50 AM 68.0 °F 59.0 °F 73% 29.42 in 6.2 mi SW 15.0 mph - N/A   Mostly Cloudy
6:20 AM 66.2 °F 59.0 °F 78% 29.42 in 6.2 mi SW 13.8 mph - N/A   Mostly Cloudy
6:50 AM 66.2 °F 59.0 °F 78% 29.44 in 6.2 mi SW 12.7 mph 24.2 mph N/A Rain Light Rain
7:20 AM 64.4 °F 59.0 °F 83% 29.44 in 6.2 mi WSW 18.4 mph - N/A   Scattered Clouds
7:50 AM 64.4 °F 57.2 °F 77% 29.47 in 6.2 mi West 15.0 mph - N/A   Scattered Clouds
8:20 AM 64.4 °F 57.2 °F 77% 29.47 in 6.2 mi West 17.3 mph - N/A   Mostly Cloudy
8:50 AM 64.4 °F 55.4 °F 73% 29.50 in 6.2 mi West 15.0 mph 26.5 mph N/A   Mostly Cloudy
9:20 AM 64.4 °F 55.4 °F 73% 29.53 in 6.2 mi West 13.8 mph - N/A   Scattered Clouds
9:50 AM 64.4 °F 55.4 °F 73% 29.53 in 6.2 mi West 18.4 mph 32.2 mph N/A   Scattered Clouds
10:20 AM 64.4 °F 55.4 °F 73% 29.56 in 6.2 mi West 17.3 mph - N/A   Scattered Clouds
10:50 AM 64.4 °F 55.4 °F 73% 29.56 in 6.2 mi WSW 15.0 mph - N/A   Mostly Cloudy
11:50 AM 64.4 °F 57.2 °F 77% 29.59 in 6.2 mi West 11.5 mph - N/A   Mostly Cloudy
12:20 PM 64.4 °F 57.2 °F 77% 29.59 in 6.2 mi West 10.4 mph - N/A   Mostly Cloudy
12:50 PM 64.4 °F 57.2 °F 77% 29.59 in 6.2 mi West 5.8 mph - N/A Rain Light Rain
1:20 PM 66.2 °F 57.2 °F 73% 29.62 in 6.2 mi West 11.5 mph - N/A   Mostly Cloudy
1:50 PM 66.2 °F 57.2 °F 73% 29.62 in 6.2 mi West 15.0 mph - N/A   Mostly Cloudy
2:20 PM 68.0 °F 55.4 °F 64% 29.62 in 6.2 mi West 11.5 mph - N/A   Scattered Clouds
2:50 PM 66.2 °F 55.4 °F 68% 29.65 in 6.2 mi West 10.4 mph - N/A   Scattered Clouds
3:20 PM 66.2 °F 55.4 °F 68% 29.65 in 6.2 mi West 9.2 mph - N/A   Scattered Clouds
3:50 PM 64.4 °F 55.4 °F 73% 29.65 in 6.2 mi WSW 8.1 mph - N/A   Scattered Clouds
4:20 PM 64.4 °F 55.4 °F 73% 29.65 in 6.2 mi WSW 6.9 mph - N/A   Scattered Clouds
4:50 PM 64.4 °F 53.6 °F 68% 29.65 in 6.2 mi SW 5.8 mph - N/A   Partly Cloudy
5:20 PM 64.4 °F 53.6 °F 68% 29.65 in 6.2 mi SSW 4.6 mph - N/A   Partly Cloudy
5:50 PM 62.6 °F 53.6 °F 72% 29.68 in 6.2 mi WSW 4.6 mph - N/A   Partly Cloudy
6:20 PM 57.2 °F 53.6 °F 88% 29.68 in 6.2 mi WNW 4.6 mph - N/A   Partly Cloudy
6:50 PM 62.6 °F 55.4 °F 77% 29.68 in 6.2 mi SSW 3.5 mph - N/A   Partly Cloudy
7:20 PM 64.4 °F 57.2 °F 77% 29.68 in 6.2 mi SSW 4.6 mph - N/A   Partly Cloudy
7:50 PM 66.2 °F 57.2 °F 73% 29.68 in - SSW 6.9 mph - N/A   Unknown
8:20 PM 64.4 °F 55.4 °F 73% 29.68 in - SSW 6.9 mph - N/A   Clear
8:50 PM 64.4 °F 55.4 °F 73% 29.71 in 6.2 mi SW 6.9 mph - N/A   Partly Cloudy
9:20 PM 64.4 °F 57.2 °F 77% 29.71 in 6.2 mi SW 6.9 mph - N/A   Partly Cloudy
9:50 PM 66.2 °F 57.2 °F 73% 29.71 in 6.2 mi SW 6.9 mph - N/A   Partly Cloudy
10:20 PM 62.6 °F 57.2 °F 82% 29.74 in 6.2 mi WSW 5.8 mph - N/A   Scattered Clouds
10:50 PM 64.4 °F 57.2 °F 77% 29.74 in 6.2 mi SW 4.6 mph - N/A   Scattered Clouds
11:20 PM 64.4 °F 57.2 °F 77% 29.74 in 6.2 mi SW 4.6 mph - N/A   Scattered Clouds
11:50 PM 64.4 °F 59.0 °F 83% 29.74 in 6.2 mi SSW 5.8 mph - N/A   Scattered Clouds